Temperature
22 21 21 21 19 18 20 21 21 22 22 22 22 21 20 19 19 18 18 18 18 18 18 18 18 18 18 18 18 18 18 18 18 18 18 18 18 18 18 18 18 18 18 18 18 17 17 17 18
22 22 21 21 18 19 20 21 21 22 22 22 22 21 20 19 19 18 18 18 18 18 18 18 18 18 18 18 18 18 18 18 18 18 18 18 18 18 18 17 17 17 17 17 17 17 17 17 17
22 22 21 18 19 19 20 21 22 23 23 23 22 21 20 19 19 19 18 18 18 18 18 18 18 18 18 18 18 18 18 18 18 18 18 18 18 18 17 17 17 17 17 17 17 17 17 17 17
22 22 21 18 19 20 21 21 22 22 23 22 21 20 20 19 19 19 18 18 18 18 18 18 18 18 18 18 18 18 18 18 18 18 18 17 17 17 17 17 17 17 17 17 17 17 17 17 17
22 22 19 19 20 21 21 22 23 22 22 22 21 19 19 19 19 19 19 18 18 18 18 18 18 18 18 18 18 18 18 18 18 17 17 17 17 17 17 17 17 17 17 17 17 17 17 17 17
22 19 18 19 20 21 22 23 23 22 21 21 20 19 19 19 19 19 19 19 18 18 18 18 18 18 18 18 18 18 18 18 17 17 17 17 17 17 17 17 17 17 17 17 17 17 17 17 17
21 18 19 20 20 21 22 23 22 22 22 21 21 19 19 19 19 19 19 18 18 18 18 18 18 18 18 18 18 18 18 18 17 17 17 17 17 17 17 17 17 17 17 17 17 16 16 16 16
22 18 20 20 20 21 22 23 23 22 22 22 21 19 19 19 19 19 19 18 18 18 18 18 18 18 18 18 17 17 17 17 17 17 17 17 17 17 17 17 17 17 17 16 16 16 16 16 16
23 18 19 20 21 21 22 23 23 23 22 22 21 21 20 19 19 19 19 18 18 18 18 18 18 18 18 18 17 17 17 17 17 17 17 17 17 17 17 17 16 16 16 16 16 16 16 16 16
22 19 20 21 21 21 22 22 22 22 21 21 21 20 20 19 19 19 19 19 18 18 18 18 18 18 18 17 17 17 17 17 17 17 17 17 17 16 16 16 16 16 16 16 16 16 16 16 16
22 20 21 22 23 23 22 22 22 21 20 20 20 20 20 19 19 19 19 19 19 18 18 18 18 18 18 18 17 17 17 17 17 17 17 17 16 16 16 16 16 16 16 16 16 16 16 16 16
22 22 23 23 23 23 23 22 22 22 21 22 21 21 20 20 19 19 19 19 19 18 18 18 18 18 18 17 17 17 17 17 17 17 16 16 16 16 16 16 16 16 16 16 16 16 16 16 16
22 22 23 23 23 23 23 22 22 21 22 21 21 21 20 20 19 19 19 19 19 18 18 18 18 18 18 17 17 17 17 17 17 17 16 16 16 16 16 16 16 16 16 16 16 16 16 16 16
23 23 23 23 23 23 22 21 21 21 21 21 21 20 20 20 19 19 19 19 19 18 18 18 18 18 17 17 17 17 17 17 17 17 16 16 16 16 16 16 16 16 16 16 15 15 15 15 15
23 22 22 22 23 22 22 21 20 21 21 20 20 20 20 20 19 19 19 19 19 18 18 18 18 18 17 17 17 17 17 17 17 16 16 16 16 16 16 16 16 16 15 15 15 15 15 15 15
22 21 20 21 22 22 21 20 20 21 21 20 20 20 20 19 19 19 19 19 19 18 18 18 18 17 17 17 17 17 17 17 16 16 16 16 16 16 16 16 15 15 15 15 15 15 15 15 15
20 19 20 21 22 22 21 20 20 21 20 20 20 20 20 19 19 19 19 19 18 18 18 18 18 17 17 17 17 16 16 16 16 16 16 16 16 16 15 15 15 15 15 15 15 15 15 15 15
20 20 20 21 21 21 20 20 20 21 20 20 20 20 20 19 19 19 19 19 18 18 18 18 17 17 17 17 17 16 16 16 16 16 16 16 16 15 15 15 15 15 15 15 15 15 14 15 15
21 21 20 21 22 21 20 19 19 20 20 19 19 19 19 19 19 19 19 18 18 18 18 18 17 17 17 17 16 16 16 16 16 16 15 15 15 15 15 15 15 15 15 14 14 14 14 14 14
21 21 20 21 21 21 19 19 19 19 20 20 20 19 19 19 19 19 18 18 18 18 18 17 17 17 17 16 16 16 16 16 16 15 15 15 15 15 15 15 15 15 14 14 14 14 14 14 14
21 21 21 21 21 20 20 19 19 19 20 20 20 20 20 19 19 19 18 18 18 18 17 17 17 17 16 16 16 16 16 15 15 15 15 15 15 15 15 15 15 15 14 14 14 14 14 14 14
21 22 22 22 19 18 19 17 18 18 18 19 19 19 19 19 19 18 18 18 18 18 17 17 17 17 16 16 16 16 15 15 15 15 15 15 15 15 15 14 14 14 14 14 14 14 14 14 13
21 22 22 21 20 18 18 17 17 18 18 18 18 19 19 19 19 18 18 18 18 17 17 17 16 16 16 16 16 16 15 15 15 15 15 15 15 14 14 14 14 14 14 14 14 14 13 13 13
22 21 20 18 17 18 18 18 17 17 18 18 18 19 19 19 19 18 18 18 18 17 17 17 16 16 16 16 16 15 15 15 15 14 14 14 14 14 14 14 14 14 14 14 14 13 13 13 13
20 18 17 18 16 17 18 18 17 18 19 19 18 18 19 19 18 18 18 18 17 17 17 17 16 16 16 16 15 15 15 15 14 14 14 14 14 14 14 14 14 14 14 14 14 13 13 13 13
20 18 17 18 17 17 18 17 17 19 19 20 19 19 18 18 18 18 18 18 17 17 17 16 16 16 16 15 15 15 15 14 14 14 14 14 14 14 14 14 14 14 14 14 13 13 13 13 13
20 19 18 17 17 17 17 17 18 19 18 18 18 18 18 18 18 18 17 17 17 17 17 16 16 16 15 15 15 15 14 14 14 14 14 14 14 14 14 14 14 14 14 13 13 13 13 13 13
21 19 16 17 17 17 17 17 17 18 18 17 17 17 18 18 18 18 17 17 17 17 16 16 16 15 15 15 15 14 14 14 14 14 14 14 14 13 13 14 13 13 13 13 13 13 13 13 12
20 19 17 15 16 16 16 17 18 17 18 17 17 17 17 18 18 17 17 17 17 16 16 16 15 15 15 15 15 14 14 14 14 14 13 13 13 13 13 13 13 13 13 13 13 13 13 12 12
20 19 17 17 16 15 15 16 18 17 18 18 17 17 17 17 18 17 17 16 16 16 16 15 15 15 15 15 14 14 14 14 14 13 13 13 13 13 13 13 13 13 12 12 12 12 12 12 12
Wind_Speed
4 3 2 3 5 5 3 1 2 3 4 4 8 9 8 6 4 5 3 8 10 8 8 9 10 10 9 9 9 9 9 10 10 10 10 11 11 11 11 12 12 11 11 11 11 11 10 10 9
2 1 4 4 5 4 2 1 4 4 5 6 8 8 7 6 5 6 5 9 10 9 8 9 10 10 9 9 8 9 9 9 10 10 10 10 10 11 12 11 11 11 11 11 10 10 9 9 9
1 1 4 4 4 3 3 1 4 4 6 5 5 5 5 4 4 4 6 11 10 9 8 9 10 10 9 8 8 8 9 9 9 9 9 10 10 10 10 10 10 10 10 10 10 9 9 8 8
3 4 5 5 3 1 4 3 3 5 6 5 6 6 4 3 4 6 10 11 10 8 8 10 10 9 9 8 8 8 8 8 9 9 9 9 9 9 9 9 9 9 9 9 9 9 9 8 8
4 4 5 3 1 1 2 4 4 6 4 5 7 6 3 3 7 10 11 11 10 7 8 9 10 9 8 8 8 8 8 8 8 8 9 8 9 9 8 8 8 8 8 8 8 8 8 8 8
4 4 4 2 1 2 2 4 6 7 7 6 7 6 3 3 7 8 10 9 8 8 7 8 9 9 8 7 8 8 8 8 8 8 8 7 7 7 7 7 7 7 7 7 7 7 7 7 8
4 4 3 3 3 2 2 3 5 5 5 4 6 6 4 3 6 8 9 9 7 7 6 5 6 7 7 6 7 7 8 7 7 7 7 7 7 6 6 6 7 6 6 6 6 6 6 7 7
5 4 3 2 3 1 1 3 4 6 4 4 5 7 6 6 7 8 8 7 6 5 5 4 5 4 4 5 6 6 7 7 6 7 6 6 6 6 6 6 6 5 5 5 5 5 5 6 6
4 5 2 2 4 2 2 4 2 3 5 4 3 5 7 10 9 9 7 5 5 4 3 3 3 3 4 4 4 4 5 6 6 5 6 5 4 4 4 4 5 5 5 4 4 4 5 5 5
5 4 3 4 4 4 3 3 3 4 6 4 5 7 10 10 9 9 7 6 5 4 3 3 3 3 4 3 3 3 3 3 4 4 4 4 4 3 3 4 4 5 5 4 5 5 5 4 4
4 4 3 2 3 4 4 2 2 6 3 5 8 10 10 9 8 8 7 6 6 5 4 4 4 4 4 3 3 2 2 3 3 3 4 4 4 3 2 2 3 3 4 4 5 6 5 4 3
3 1 3 3 3 4 4 3 3 3 5 7 11 12 11 10 9 8 7 6 5 5 5 4 4 4 4 4 3 3 2 2 2 3 5 5 3 3 2 2 2 3 3 3 4 3 4 5 5
2 1 2 3 4 4 5 4 4 3 4 8 10 10 9 8 7 7 6 6 6 5 4 4 4 4 3 3 2 3 2 2 3 3 5 6 4 2 2 2 3 3 3 4 4 4 4 4 4
3 2 1 2 3 3 5 3 4 4 7 9 10 9 8 8 8 6 6 6 5 5 5 5 5 4 4 3 2 2 3 3 4 4 5 6 5 3 3 2 3 3 4 4 4 4 4 3 4
3 3 2 1 3 3 5 2 3 6 8 9 8 7 7 6 6 6 7 7 6 6 5 5 5 4 4 3 3 3 3 4 4 4 5 6 6 5 4 3 2 3 5 6 5 5 5 4 4
2 2 0 4 3 3 6 3 4 6 10 9 7 7 6 6 6 6 6 6 6 6 5 4 5 4 4 3 3 3 4 4 3 4 4 5 6 7 5 3 3 4 6 5 4 3 4 4 4
2 1 3 3 3 3 5 4 4 6 10 9 8 7 7 6 5 5 5 5 6 6 5 4 4 4 4 3 3 3 4 4 3 4 4 4 6 7 6 4 3 5 4 3 4 3 3 3 3
3 3 2 3 3 4 4 4 4 6 9 9 8 7 7 7 7 5 5 5 5 5 5 4 3 3 3 3 3 2 3 2 3 3 3 4 5 6 6 4 4 5 4 3 3 3 3 2 2
4 3 3 4 4 4 5 5 6 6 7 8 7 7 8 8 6 5 5 5 5 4 4 4 4 3 4 3 2 2 1 1 1 2 3 4 5 6 5 4 3 3 3 3 3 3 3 3 3
3 3 3 3 2 3 4 5 5 6 8 10 10 9 9 7 4 5 5 5 6 6 5 4 4 4 4 3 2 2 2 1 1 1 3 4 5 5 5 4 3 3 3 3 3 3 3 1 2
2 5 5 4 1 1 2 3 3 3 4 5 7 8 9 10 9 8 7 6 5 5 5 5 4 4 4 4 3 3 3 2 2 2 1 1 4 5 5 4 4 3 3 3 3 3 4 2 1
4 6 5 4 3 3 3 2 5 4 3 4 5 6 8 8 8 8 8 6 5 5 4 5 5 4 4 5 5 5 3 1 1 1 0 0 2 4 4 5 4 3 3 3 3 3 2 3 1
6 5 4 3 4 1 0 3 5 2 3 6 6 7 8 9 10 9 8 8 5 4 4 4 4 4 4 4 5 5 3 1 1 1 1 1 1 2 3 4 4 3 3 3 3 3 2 2 2
2 2 4 4 4 1 5 5 5 4 7 6 6 7 8 8 8 7 6 6 4 3 3 4 4 3 3 4 4 4 4 3 2 1 1 0 0 0 1 3 3 3 2 3 2 3 3 2 2
4 5 3 4 2 4 2 3 5 6 6 8 9 8 7 7 7 7 7 6 5 5 4 3 4 3 3 4 4 4 4 4 4 2 2 1 0 1 1 1 2 2 2 2 3 3 2 3 3
3 8 6 4 4 3 2 1 5 5 2 5 7 8 7 7 7 7 8 7 6 6 5 4 4 3 4 4 3 3 3 3 2 3 2 2 1 2 2 1 2 2 2 3 3 2 2 2 2
3 4 7 6 2 0 2 2 4 1 2 3 5 7 7 7 7 7 7 7 7 6 6 5 4 3 4 4 3 3 3 2 3 2 2 1 1 1 2 2 2 2 2 2 3 2 2 2 1
4 5 5 4 3 2 2 3 4 4 3 3 5 6 7 7 7 7 7 7 6 5 4 4 4 5 4 3 3 3 3 2 2 2 1 1 1 1 1 2 2 2 2 2 2 2 2 2 1
1 2 4 4 4 5 3 5 4 6 6 6 6 6 7 8 8 7 6 6 5 4 4 4 4 4 3 3 3 3 2 2 2 2 1 1 1 1 1 2 2 2 2 2 2 2 2 2 1
3 4 5 3 2 3 4 5 4 4 4 5 5 4 5 6 6 6 6 6 5 5 4 4 4 4 3 3 3 3 2 2 2 2 1 1 1 1 1 2 2 2 1 2 2 2 2 3 2
Wind_Direction
320 338 85 59 55 55 52 11 108 67 55 53 72 81 84 68 83 126 170 137 135 137 131 122 116 111 107 103 96 97 99 96 96 97 97 98 98 97 95 94 90 87 89 89 87 86 83 81 79
334 22 64 56 78 75 40 52 83 87 126 114 79 79 78 71 82 111 125 140 137 138 134 128 123 116 111 107 102 101 102 101 101 101 101 100 100 98 96 95 92 90 91 90 88 84 83 80 77
319 79 78 64 82 133 155 166 123 93 96 93 76 59 70 100 111 129 150 141 132 133 136 135 129 122 116 112 108 108 108 108 107 105 106 105 103 102 100 98 94 92 92 89 88 84 81 79 76
72 53 59 72 88 164 165 177 134 96 68 67 92 67 52 70 127 142 142 136 132 137 140 140 135 129 123 119 116 114 114 113 112 111 111 109 107 105 103 99 96 94 92 92 91 88 83 78 75
69 76 67 64 97 162 142 137 122 100 93 83 91 92 67 31 116 131 133 135 136 142 147 145 140 136 130 124 120 122 118 116 117 117 115 112 111 109 108 105 100 98 99 96 92 90 85 78 72
57 69 83 105 117 92 94 109 101 101 110 103 99 106 111 123 125 132 132 135 140 145 148 147 146 140 135 130 126 127 123 120 119 121 122 119 115 114 114 111 107 103 103 100 93 91 88 78 72
103 93 122 147 121 99 137 117 112 114 110 132 129 111 134 162 156 137 132 132 133 139 141 146 149 145 141 136 134 131 127 124 121 121 125 128 127 125 122 120 114 110 110 108 102 97 88 76 70
127 102 82 113 133 157 185 96 118 116 112 122 121 134 163 191 160 131 125 124 127 132 139 147 150 154 153 153 150 143 135 130 123 121 122 126 130 132 133 130 124 121 117 114 109 98 86 70 65
97 83 119 170 158 172 138 92 75 77 93 68 84 139 153 149 134 120 113 108 125 138 147 142 148 160 163 167 164 151 138 132 128 122 121 118 115 121 127 123 120 116 111 109 105 90 78 63 55
97 124 191 193 168 153 119 110 131 81 78 74 72 92 124 132 131 133 136 141 141 148 153 150 153 154 155 153 123 124 121 117 122 125 118 112 111 108 109 110 106 97 89 85 84 81 68 63 53
134 158 168 147 149 139 125 123 99 116 113 158 147 144 142 141 140 147 152 152 156 159 144 140 142 134 134 126 125 116 103 104 114 124 128 118 107 95 86 81 69 60 66 69 64 62 60 67 69
128 163 145 151 140 125 134 130 102 138 183 176 157 152 150 150 154 164 161 151 146 138 143 147 142 134 131 127 122 119 107 105 113 122 125 124 108 97 103 90 77 68 63 66 67 67 63 66 73
120 152 136 146 134 131 118 125 133 149 158 148 142 138 145 151 162 166 159 154 149 144 143 151 143 136 135 125 123 115 120 115 109 118 131 127 121 124 113 93 90 77 72 69 65 65 65 63 65
164 141 131 144 136 132 127 135 125 174 146 135 134 138 146 152 159 152 150 154 158 150 150 148 142 144 132 127 124 112 104 105 99 99 119 126 125 120 106 98 88 82 86 81 77 75 75 67 70
126 94 6 234 160 160 120 80 180 174 139 132 138 140 141 151 146 153 163 161 163 153 146 144 144 137 133 133 133 108 106 98 93 96 105 112 114 113 108 101 93 89 87 82 78 69 70 68 65
68 76 290 270 174 171 135 199 228 164 139 144 152 146 144 153 156 161 160 159 155 145 144 149 143 141 139 136 124 106 102 96 91 93 102 110 117 112 104 104 102 94 88 83 86 72 70 61 58
44 165 217 265 202 162 147 203 224 170 150 160 166 165 164 163 163 160 153 154 149 149 148 140 137 142 142 130 116 103 96 93 94 91 93 106 114 115 111 105 96 94 84 80 87 72 81 77 63
212 193 214 223 218 160 166 206 216 183 161 170 178 178 174 172 183 174 155 150 140 146 146 138 131 127 125 113 101 83 78 81 85 93 98 109 113 116 112 103 95 94 88 75 84 83 64 75 74
193 183 228 237 213 167 194 210 214 192 173 179 184 183 182 187 186 164 150 140 133 134 134 138 133 131 125 116 114 112 119 122 77 83 95 107 116 119 113 111 105 102 102 101 101 97 78 59 66
177 195 236 271 223 174 202 238 232 203 191 187 186 186 185 181 163 158 153 151 152 155 156 150 148 143 141 142 148 149 137 131 129 62 73 100 116 119 120 120 125 124 117 100 94 102 99 83 59
222 204 210 213 288 21 113 320 281 264 210 196 189 184 182 175 169 168 164 161 155 158 162 160 160 148 140 131 110 86 62 47 38 37 49 80 116 117 120 121 126 129 130 133 130 126 123 128 22
241 240 215 197 146 247 163 228 270 245 220 202 191 178 177 172 166 168 167 162 166 173 162 152 152 145 141 134 133 135 131 146 206 189 161 61 110 114 120 124 126 134 136 142 152 140 130 127 129
223 235 224 204 170 231 235 164 275 216 207 219 201 184 177 177 172 172 174 172 169 163 153 152 145 140 138 137 143 143 139 146 123 89 88 70 80 106 120 128 135 142 146 155 153 138 138 135 140
205 39 32 53 86 257 231 173 259 229 213 202 198 186 175 175 173 168 166 156 150 144 135 133 134 139 142 138 139 142 144 136 118 100 117 214 243 237 143 136 147 153 151 157 159 155 154 152 142
86 90 35 2 11 252 242 158 245 250 216 190 181 179 176 170 168 166 164 163 161 152 142 145 142 145 150 147 150 152 156 155 156 162 177 178 192 233 239 173 173 160 160 151 142 145 151 153 148
182 145 158 194 220 273 355 204 265 270 204 168 162 162 161 168 171 173 179 176 169 163 158 158 157 159 160 160 166 158 156 160 167 172 176 188 200 215 216 189 174 165 150 135 127 131 150 142 155
163 179 175 152 171 186 285 273 302 331 75 125 148 152 165 174 177 181 183 179 172 169 172 171 167 165 163 165 158 153 158 167 177 180 173 190 206 194 187 184 181 177 151 138 133 129 137 132 146
160 151 98 124 157 228 277 241 233 227 194 166 167 171 180 179 179 180 180 177 176 173 170 159 155 157 154 152 155 160 167 170 166 161 175 196 229 205 171 155 158 164 155 147 139 140 144 136 154
36 85 111 128 155 161 225 264 235 204 200 188 187 185 184 183 182 179 172 166 165 162 158 153 150 144 145 151 149 145 157 154 143 146 176 186 199 190 159 161 155 156 165 163 156 164 153 156 172
173 166 142 149 226 172 177 258 284 200 189 171 176 186 192 182 175 167 158 155 156 157 153 153 152 148 158 154 145 147 147 145 141 152 175 161 168 190 175 155 158 163 171 173 173 187 177 177 194
Height
1513 1512 1511 1512 1516 1525 1529 1523 1516 1514 1514 1514 1513 1514 1517 1521 1524 1531 1528 1526 1527 1527 1527 1527 1526 1526 1525 1525 1524 1524 1523 1523 1523 1523 1523 1523 1522 1522 1522 1522 1522 1522 1522 1522 1522 1522 1522 1522 1522
1513 1512 1513 1513 1523 1536 1532 1521 1517 1514 1515 1515 1515 1517 1519 1522 1524 1525 1526 1527 1527 1527 1527 1527 1527 1526 1526 1525 1525 1525 1524 1524 1524 1524 1524 1524 1523 1523 1523 1523 1523 1523 1523 1523 1523 1523 1523 1523 1523
1513 1512 1514 1517 1526 1534 1530 1520 1516 1514 1515 1514 1517 1519 1521 1524 1525 1526 1527 1527 1528 1528 1528 1528 1528 1527 1527 1526 1526 1526 1525 1525 1525 1525 1524 1524 1524 1524 1524 1524 1524 1524 1524 1524 1524 1524 1524 1524 1524
1513 1514 1516 1523 1528 1524 1520 1517 1515 1515 1515 1516 1518 1522 1524 1526 1526 1526 1527 1528 1529 1529 1529 1529 1528 1528 1528 1527 1527 1526 1526 1526 1526 1525 1525 1525 1525 1525 1525 1525 1525 1525 1525 1525 1525 1524 1524 1524 1524
1513 1514 1522 1529 1526 1520 1516 1515 1515 1515 1517 1518 1519 1524 1526 1527 1527 1528 1528 1529 1529 1529 1529 1529 1529 1529 1529 1528 1528 1527 1527 1527 1526 1526 1526 1526 1526 1526 1526 1526 1526 1526 1526 1525 1525 1525 1525 1525 1525
1514 1516 1529 1534 1527 1520 1517 1516 1516 1517 1519 1520 1521 1524 1528 1529 1528 1529 1529 1530 1530 1530 1530 1530 1530 1530 1529 1529 1529 1528 1528 1527 1527 1527 1527 1527 1527 1527 1527 1527 1527 1526 1526 1526 1526 1526 1526 1526 1525
1515 1520 1528 1528 1527 1522 1518 1517 1517 1518 1519 1520 1521 1524 1528 1529 1529 1530 1530 1531 1531 1531 1531 1531 1531 1531 1530 1530 1530 1529 1529 1528 1528 1528 1527 1527 1527 1528 1527 1527 1527 1527 1527 1527 1527 1527 1527 1527 1526
1514 1520 1526 1527 1526 1523 1518 1517 1518 1518 1519 1521 1521 1523 1526 1529 1530 1530 1531 1531 1532 1532 1532 1532 1532 1532 1531 1531 1531 1530 1530 1529 1529 1528 1528 1528 1528 1528 1528 1528 1528 1528 1528 1528 1528 1528 1528 1527 1527
1514 1524 1529 1526 1524 1521 1517 1517 1519 1519 1519 1521 1521 1522 1524 1527 1529 1530 1531 1532 1532 1532 1532 1532 1532 1532 1532 1532 1531 1531 1531 1530 1530 1529 1529 1529 1529 1529 1529 1529 1529 1529 1529 1529 1529 1528 1528 1528 1528
1514 1525 1522 1518 1517 1517 1517 1518 1519 1520 1521 1522 1523 1524 1525 1527 1529 1530 1531 1532 1532 1533 1533 1533 1533 1533 1532 1532 1532 1532 1531 1531 1530 1530 1530 1530 1530 1530 1530 1530 1530 1530 1530 1530 1529 1529 1529 1529 1528
1513 1518 1516 1515 1515 1516 1517 1518 1519 1520 1523 1522 1523 1524 1526 1527 1529 1530 1531 1532 1532 1533 1533 1533 1533 1533 1533 1533 1533 1532 1532 1532 1531 1531 1531 1531 1531 1531 1531 1531 1531 1531 1530 1530 1530 1530 1529 1529 1529
1514 1514 1514 1515 1515 1516 1517 1518 1520 1520 1522 1522 1522 1523 1525 1527 1529 1530 1531 1532 1533 1533 1534 1534 1534 1534 1534 1534 1533 1533 1533 1532 1532 1532 1532 1531 1531 1531 1531 1531 1531 1531 1531 1531 1531 1530 1530 1529 1529
1514 1514 1514 1514 1515 1516 1517 1518 1519 1520 1521 1522 1523 1524 1525 1527 1528 1530 1531 1532 1533 1533 1534 1534 1534 1534 1534 1534 1534 1534 1533 1533 1533 1532 1532 1532 1532 1532 1532 1531 1531 1531 1531 1531 1531 1531 1530 1530 1529
1513 1513 1514 1514 1515 1516 1517 1518 1519 1521 1521 1522 1523 1524 1525 1527 1528 1530 1531 1532 1533 1533 1534 1534 1534 1535 1535 1534 1534 1534 1534 1533 1533 1533 1533 1533 1533 1532 1532 1532 1532 1531 1531 1531 1531 1531 1530 1530 1530
1513 1515 1516 1515 1514 1516 1517 1521 1520 1520 1521 1522 1523 1524 1526 1527 1528 1529 1530 1531 1532 1533 1534 1534 1534 1535 1535 1535 1534 1534 1534 1534 1534 1533 1533 1533 1533 1533 1532 1532 1532 1532 1531 1531 1531 1531 1530 1530 1530
1514 1519 1525 1517 1514 1515 1521 1528 1519 1519 1520 1522 1523 1524 1525 1527 1528 1529 1530 1531 1532 1533 1534 1534 1534 1534 1535 1534 1534 1534 1534 1534 1534 1534 1534 1533 1533 1533 1533 1532 1532 1532 1531 1531 1531 1531 1530 1530 1530
1522 1528 1526 1520 1513 1514 1519 1524 1518 1518 1519 1521 1522 1523 1524 1526 1527 1528 1529 1530 1531 1532 1533 1534 1534 1534 1534 1534 1534 1534 1534 1534 1534 1534 1533 1533 1533 1533 1532 1532 1532 1532 1531 1531 1531 1531 1530 1530 1530
1527 1526 1524 1522 1514 1515 1519 1520 1517 1518 1518 1519 1521 1522 1523 1524 1525 1527 1528 1529 1531 1532 1532 1533 1533 1533 1534 1534 1534 1534 1534 1533 1533 1533 1533 1533 1533 1533 1532 1532 1532 1532 1531 1531 1531 1530 1530 1530 1530
1515 1520 1523 1518 1511 1515 1519 1519 1517 1517 1518 1519 1519 1520 1521 1523 1525 1526 1528 1529 1530 1531 1531 1532 1532 1532 1532 1532 1532 1532 1532 1532 1532 1532 1532 1532 1532 1532 1532 1532 1531 1531 1531 1530 1530 1530 1530 1530 1530
1513 1520 1521 1516 1511 1514 1519 1519 1515 1515 1515 1515 1516 1518 1519 1521 1523 1525 1526 1527 1528 1529 1530 1531 1531 1531 1531 1531 1531 1532 1532 1532 1532 1532 1531 1531 1532 1532 1531 1531 1531 1531 1530 1530 1530 1530 1530 1530 1530
1513 1516 1517 1517 1514 1514 1519 1525 1519 1514 1513 1514 1515 1516 1517 1519 1521 1522 1524 1525 1526 1527 1528 1529 1530 1530 1530 1531 1531 1531 1531 1531 1531 1531 1530 1531 1531 1531 1531 1531 1530 1530 1530 1530 1530 1530 1529 1529 1530
1516 1507 1508 1512 1521 1528 1523 1537 1523 1517 1515 1513 1513 1514 1515 1517 1519 1520 1521 1523 1524 1525 1526 1527 1528 1529 1529 1530 1529 1529 1529 1529 1530 1530 1530 1530 1530 1530 1530 1530 1530 1530 1529 1529 1529 1529 1529 1529 1529
1507 1502 1505 1510 1518 1526 1525 1534 1528 1517 1518 1514 1512 1512 1514 1515 1517 1518 1519 1521 1522 1524 1525 1526 1527 1527 1528 1528 1528 1528 1528 1528 1528 1529 1528 1528 1528 1528 1528 1528 1529 1529 1529 1529 1528 1529 1529 1529 1529
1500 1504 1509 1516 1524 1536 1526 1532 1530 1520 1514 1511 1510 1511 1512 1513 1515 1517 1518 1519 1521 1522 1523 1524 1525 1525 1526 1526 1526 1526 1526 1526 1527 1527 1527 1527 1527 1527 1527 1527 1527 1527 1527 1527 1527 1527 1528 1528 1528
1503 1519 1534 1536 1542 1538 1522 1526 1525 1509 1505 1506 1507 1508 1510 1512 1514 1515 1517 1518 1519 1520 1521 1522 1523 1523 1524 1524 1525 1525 1525 1525 1525 1525 1525 1525 1525 1525 1525 1525 1526 1526 1526 1526 1526 1526 1526 1526 1527
1505 1515 1534 1543 1544 1537 1525 1527 1518 1504 1502 1503 1505 1507 1509 1511 1512 1513 1515 1516 1517 1518 1519 1520 1521 1521 1522 1523 1523 1523 1523 1523 1523 1523 1523 1523 1523 1523 1523 1524 1524 1524 1524 1524 1525 1525 1525 1525 1525
1505 1511 1512 1527 1530 1537 1532 1523 1512 1504 1504 1504 1505 1506 1508 1509 1511 1512 1513 1514 1516 1517 1518 1518 1519 1520 1520 1521 1521 1521 1521 1521 1522 1522 1522 1522 1522 1522 1522 1522 1522 1522 1523 1523 1523 1523 1523 1523 1524
1498 1503 1517 1526 1536 1542 1534 1527 1523 1511 1508 1506 1506 1506 1507 1508 1509 1510 1511 1513 1514 1516 1516 1517 1517 1518 1519 1519 1519 1519 1520 1520 1520 1520 1520 1520 1520 1520 1520 1520 1520 1520 1520 1521 1521 1521 1521 1522 1522
1502 1505 1512 1523 1527 1538 1541 1532 1508 1506 1505 1505 1505 1505 1506 1506 1507 1508 1510 1511 1513 1514 1515 1516 1516 1517 1517 1517 1518 1518 1518 1518 1518 1518 1518 1518 1519 1518 1518 1518 1518 1518 1518 1519 1519 1519 1519 1520 1520
1498 1503 1511 1524 1527 1529 1534 1529 1502 1501 1501 1502 1503 1504 1505 1505 1506 1507 1509 1510 1511 1512 1513 1514 1515 1515 1516 1516 1516 1516 1516 1516 1517 1517 1517 1517 1517 1517 1517 1517 1516 1516 1516 1517 1517 1517 1517 1517 1518